Wind_Speed
13 13 13 13 13 13 13 13 14 14 14 15 15 15 16 16 16 17 18 19 19 20 21 21 22 22 22 23 23 23 23 24 25 25 26 26 26 26 26 28 29 31 32
14 15 15 15 15 16 16 16 17 17 17 18 18 19 19 19 20 20 21 21 22 23 23 24 24 25 25 25 25 25 25 26 26 26 27 27 28 28 28 28 29 30 32
16 17 17 18 18 19 19 19 20 20 21 21 22 22 23 23 23 23 24 24 25 25 26 27 27 27 27 27 27 27 27 27 28 28 28 29 30 30 30 30 30 30 31
18 18 19 20 21 22 22 23 23 24 24 25 25 26 26 26 26 26 27 27 27 28 28 29 29 29 29 29 29 29 30 30 29 29 30 31 31 32 32 32 32 32 32
20 21 22 23 24 25 25 26 27 27 28 28 28 29 29 29 29 29 29 30 30 30 30 30 31 31 31 32 32 32 32 32 32 32 32 33 33 33 33 33 33 33 34
23 24 25 26 26 27 28 29 29 30 31 31 31 31 31 31 31 31 32 32 32 32 32 32 33 33 33 34 34 34 34 34 34 34 34 35 35 35 35 35 35 34 35
25 26 28 29 29 30 30 31 32 32 32 32 32 32 32 32 33 33 34 34 34 34 34 34 35 35 35 35 36 36 37 37 37 37 37 37 37 37 37 37 36 36 36
28 29 30 31 32 33 34 34 34 34 34 33 33 33 33 34 34 35 35 35 35 35 36 37 37 37 38 38 38 38 38 39 39 39 39 38 38 39 38 38 38 37 37
30 32 32 33 34 35 36 35 36 35 34 34 34 34 35 35 36 37 38 38 38 38 38 39 40 40 40 40 41 41 41 41 42 41 41 40 40 40 40 40 40 39 38
34 34 35 35 36 36 36 36 37 36 36 36 36 36 37 37 38 40 41 41 41 41 41 42 42 42 43 43 44 44 44 44 44 44 43 43 42 42 42 42 41 41 40
36 36 36 37 38 38 38 38 38 38 38 38 39 39 39 40 41 42 44 44 45 45 44 45 46 46 46 47 47 47 46 47 46 46 45 45 44 44 44 44 43 42 41
37 38 38 37 38 39 39 39 40 40 40 40 42 42 42 43 44 46 47 47 48 47 47 48 49 49 49 50 50 50 50 50 49 48 47 47 47 47 46 45 44 43 41
39 38 39 39 40 41 41 41 42 43 43 44 44 45 46 47 47 48 50 50 51 51 52 52 52 52 52 53 53 53 53 52 52 51 50 49 48 48 47 46 45 44 42
39 39 40 41 41 42 43 44 45 45 46 47 48 49 50 51 52 52 53 54 55 56 56 55 55 55 56 56 56 55 55 54 54 52 51 50 49 48 47 47 46 44 43
39 40 40 42 42 44 45 45 46 47 48 49 50 52 53 54 55 56 56 57 58 59 59 59 59 59 59 59 58 57 56 55 54 53 51 50 49 49 48 47 46 45 43
39 40 41 41 42 43 45 46 48 49 51 52 54 55 57 58 59 60 60 61 62 63 63 63 62 61 61 60 59 58 57 55 54 53 52 50 49 48 48 47 45 44 42
39 40 41 42 43 45 47 49 51 52 53 55 56 57 58 59 60 62 63 63 64 65 65 65 64 63 62 61 60 59 58 56 54 53 51 50 48 48 47 45 44 42 41
40 42 43 45 46 48 50 51 53 54 55 56 57 59 60 61 62 63 64 64 64 65 65 65 65 64 62 61 60 58 57 54 52 50 49 48 47 46 45 43 42 41 39
42 44 45 47 48 50 51 53 55 56 57 58 59 60 61 61 62 62 63 64 64 64 63 63 62 61 59 58 57 56 54 52 50 49 47 46 45 43 42 41 39 38 37
45 46 48 50 51 53 54 55 56 57 58 59 59 60 60 61 61 61 61 61 60 60 59 58 57 56 54 53 52 50 49 47 46 44 43 42 41 40 39 38 37 36 35
48 49 51 52 53 55 55 56 57 57 58 58 58 59 59 59 59 58 58 57 56 54 53 52 51 49 48 46 45 43 42 40 39 39 38 37 37 37 35 35 34 34 33
50 51 52 53 54 54 55 55 56 57 57 57 57 57 56 56 54 53 52 50 49 48 47 45 43 41 40 39 38 37 35 34 33 32 32 32 32 31 31 31 30 30 30
51 52 53 54 54 54 55 55 55 54 54 53 53 52 51 50 49 47 45 44 42 41 40 38 37 35 34 33 31 30 28 27 27 27 26 27 27 27 27 28 28 28 29
51 52 52 53 53 53 53 53 52 51 50 49 48 47 45 44 42 41 40 38 37 36 34 33 32 31 29 28 26 24 23 22 22 22 23 24 24 24 24 25 25 26 27
49 50 50 50 49 49 49 49 48 47 45 44 42 40 39 38 37 36 34 33 32 30 28 27 25 24 22 20 19 18 17 18 19 20 21 22 22 22 22 23 24 24 25
47 47 46 46 45 44 44 43 42 41 40 38 36 35 34 33 32 31 30 28 27 25 22 21 19 17 15 14 14 14 15 16 17 17 17 18 19 20 21 22 22 23 23
Wind_Direction
237 236 236 237 240 243 246 251 255 258 261 265 268 272 275 279 284 290 294 298 301 304 307 310 311 311 311 311 310 309 307 305 303 300 298 295 292 289 286 282 278 274 271
242 242 243 245 248 251 253 256 259 262 264 267 269 271 275 279 283 288 292 296 298 300 304 306 307 308 308 308 307 307 306 304 303 300 298 297 295 292 290 286 282 277 274
247 248 249 251 254 256 258 259 262 263 265 267 269 272 276 280 284 287 290 294 296 298 301 303 304 305 305 305 305 305 304 304 303 300 299 297 296 295 292 289 286 282 278
253 254 255 256 258 259 261 263 264 265 267 269 271 274 277 280 283 286 288 292 295 297 299 301 301 302 303 303 303 302 302 302 302 300 299 298 298 297 294 292 288 285 282
259 259 259 260 260 262 263 264 266 268 269 271 273 275 278 281 284 286 288 290 293 295 297 299 300 300 301 301 301 300 300 300 300 299 298 298 297 297 295 293 290 287 285
263 264 264 264 264 265 265 266 267 269 272 274 275 278 280 282 284 286 288 290 292 294 295 297 298 299 299 300 299 299 299 299 298 299 298 297 297 297 296 294 291 289 286
263 264 265 266 267 267 268 269 269 270 272 275 277 278 280 282 284 286 287 289 290 292 294 295 296 297 297 297 297 297 298 298 297 297 297 297 296 296 296 294 292 290 287
264 264 265 267 269 268 269 270 272 272 273 275 277 279 281 282 284 286 287 288 289 291 292 293 294 295 296 295 295 295 296 296 296 296 296 296 296 296 295 294 292 290 287
268 267 268 267 268 271 271 273 274 275 275 276 278 280 282 284 286 287 287 288 289 290 291 292 293 293 294 294 294 294 295 295 295 295 295 294 294 294 294 293 292 290 287
268 268 268 268 269 271 272 273 275 276 277 278 279 281 283 284 286 287 288 288 288 288 289 290 291 291 291 292 293 293 294 294 294 294 294 294 293 293 293 292 291 289 286
269 269 268 268 269 270 272 274 276 277 278 279 280 282 283 284 285 286 287 288 288 288 288 289 290 290 290 291 292 292 292 292 292 292 292 292 292 291 291 290 289 288 286
269 268 269 270 271 271 272 275 276 278 278 279 281 283 283 284 285 286 287 288 288 288 288 289 289 289 289 290 291 291 290 290 290 290 290 290 290 289 289 289 288 287 285
267 269 270 270 271 273 275 277 278 278 279 280 283 284 285 286 286 286 286 287 287 287 288 288 288 287 288 288 289 289 289 289 289 289 289 288 288 287 287 287 286 286 284
269 269 271 273 275 275 276 279 280 280 281 283 284 285 285 285 286 286 286 286 287 287 287 287 287 287 287 288 288 287 287 287 287 288 287 286 285 284 284 284 284 284 283
273 273 274 276 277 278 278 279 280 281 282 283 284 285 285 285 285 285 285 286 286 287 287 287 287 287 287 287 287 286 286 286 285 286 285 284 283 282 282 282 281 281 281
277 276 278 280 282 282 282 283 284 284 284 284 285 285 285 285 285 285 285 285 285 286 286 287 287 287 287 286 286 285 285 284 283 283 282 282 281 280 279 279 279 279 279
280 281 283 285 285 285 285 285 284 285 285 285 286 286 286 286 286 286 286 286 286 286 286 286 286 286 286 285 285 284 284 283 282 280 280 279 278 277 277 277 277 277 276
285 285 285 285 286 286 286 286 287 287 287 287 287 287 287 287 287 287 287 287 286 286 286 286 286 286 286 285 284 283 282 281 279 277 276 275 274 274 274 274 274 274 274
287 287 288 288 288 288 288 288 288 288 288 288 288 288 288 288 288 288 288 288 288 287 287 287 287 286 285 284 282 281 279 277 275 273 272 272 271 270 271 270 271 271 272
289 289 289 290 289 289 289 289 289 289 289 289 289 289 289 289 289 289 289 289 289 289 288 287 287 287 286 285 283 280 278 276 273 270 268 267 266 266 266 266 267 268 269
291 291 291 291 291 291 291 291 291 290 291 291 291 291 291 291 291 291 291 291 290 290 289 288 288 287 286 284 282 279 276 273 271 267 265 264 262 263 263 264 266 267 267
293 293 293 293 293 293 292 292 292 292 292 292 292 292 292 292 292 292 292 291 290 289 289 289 287 286 285 283 280 277 273 270 267 265 263 261 259 260 262 263 263 264 265
294 294 294 294 294 294 294 294 294 294 294 294 295 294 294 294 293 293 292 292 291 291 290 288 286 285 283 281 278 275 271 266 262 260 259 258 259 261 262 261 262 265 266
295 295 295 295 295 295 295 295 295 295 295 295 295 295 295 294 294 293 293 292 292 291 289 287 286 284 282 280 274 270 265 261 257 255 255 257 259 261 261 262 265 267 268
295 295 296 296 296 297 297 297 296 296 296 296 296 296 295 295 295 295 295 294 292 291 291 290 288 284 279 275 269 264 260 257 256 257 258 258 258 260 262 266 268 269 269
296 296 297 297 297 298 299 299 298 298 297 297 295 295 295 295 296 296 295 295 295 294 292 289 286 281 274 267 265 261 258 259 259 258 258 257 258 260 264 267 268 269 270
Height
5858 5859 5860 5861 5862 5862 5863 5863 5864 5864 5864 5864 5863 5862 5862 5861 5859 5858 5857 5855 5853 5852 5849 5847 5845 5843 5840 5838 5835 5833 5830 5827 5825 5822 5820 5818 5816 5815 5813 5812 5811 5810 5809
5855 5856 5857 5858 5858 5859 5859 5860 5860 5860 5860 5859 5859 5858 5857 5856 5855 5853 5852 5850 5848 5846 5844 5842 5839 5837 5834 5832 5829 5827 5824 5821 5819 5816 5813 5811 5809 5807 5805 5804 5802 5801 5800
5852 5852 5853 5854 5854 5855 5855 5855 5855 5855 5855 5854 5854 5853 5852 5850 5849 5847 5846 5844 5842 5840 5838 5835 5833 5830 5828 5825 5822 5820 5817 5815 5812 5809 5806 5803 5801 5799 5797 5795 5793 5792 5790
5847 5848 5848 5849 5849 5850 5850 5850 5850 5850 5849 5849 5848 5847 5845 5844 5843 5841 5839 5837 5835 5833 5830 5828 5825 5823 5820 5818 5815 5812 5810 5807 5804 5801 5798 5796 5793 5790 5788 5786 5784 5782 5781
5842 5843 5843 5843 5844 5844 5844 5844 5844 5844 5843 5842 5841 5840 5838 5837 5835 5833 5832 5829 5827 5825 5823 5820 5818 5815 5812 5810 5807 5804 5801 5799 5796 5793 5790 5787 5784 5782 5779 5777 5774 5772 5770
5837 5837 5837 5837 5837 5837 5837 5837 5837 5836 5836 5835 5833 5832 5831 5829 5828 5825 5823 5821 5819 5816 5814 5812 5809 5806 5804 5801 5798 5795 5792 5790 5787 5784 5781 5778 5775 5772 5769 5766 5764 5762 5760
5830 5831 5831 5830 5830 5830 5830 5830 5829 5828 5828 5827 5825 5824 5822 5821 5819 5817 5814 5812 5810 5807 5805 5802 5799 5797 5794 5791 5789 5785 5783 5780 5777 5774 5771 5768 5765 5762 5759 5756 5754 5751 5749
5824 5824 5823 5823 5823 5822 5822 5821 5821 5820 5819 5818 5816 5815 5813 5811 5809 5807 5804 5802 5800 5797 5795 5792 5789 5787 5784 5781 5778 5775 5772 5770 5767 5764 5761 5757 5754 5751 5748 5745 5743 5740 5738
5816 5816 5815 5815 5814 5814 5813 5812 5811 5811 5810 5808 5807 5805 5803 5801 5799 5797 5794 5792 5789 5787 5784 5782 5779 5776 5773 5770 5767 5764 5761 5758 5755 5752 5749 5746 5743 5740 5737 5734 5731 5729 5727
5807 5807 5807 5806 5805 5804 5803 5802 5802 5801 5799 5798 5796 5794 5792 5790 5788 5785 5782 5780 5778 5775 5773 5770 5767 5765 5761 5758 5755 5752 5749 5746 5743 5740 5737 5734 5731 5728 5725 5722 5719 5716 5714
5798 5798 5797 5796 5795 5794 5793 5792 5791 5790 5788 5787 5785 5783 5781 5779 5776 5773 5770 5767 5765 5763 5760 5758 5755 5752 5748 5745 5742 5740 5737 5733 5730 5727 5724 5721 5718 5715 5712 5709 5707 5704 5702
5788 5787 5787 5786 5785 5783 5782 5781 5780 5778 5777 5775 5773 5771 5769 5766 5764 5760 5757 5754 5751 5749 5747 5744 5741 5738 5735 5732 5729 5726 5722 5719 5716 5713 5711 5708 5704 5701 5698 5696 5694 5691 5689
5777 5776 5776 5775 5774 5773 5772 5770 5768 5766 5764 5762 5760 5758 5755 5752 5749 5746 5743 5740 5736 5734 5731 5729 5726 5723 5719 5717 5714 5711 5707 5704 5701 5698 5696 5694 5690 5687 5684 5682 5679 5678 5676
5767 5766 5765 5764 5763 5761 5760 5758 5755 5754 5752 5749 5747 5744 5741 5738 5735 5731 5728 5725 5721 5718 5715 5712 5710 5707 5703 5700 5697 5694 5691 5688 5685 5683 5681 5678 5675 5672 5670 5668 5665 5663 5662
5756 5755 5754 5753 5751 5749 5747 5745 5742 5740 5738 5735 5732 5729 5726 5723 5719 5715 5711 5708 5704 5701 5697 5695 5692 5689 5686 5683 5680 5677 5674 5671 5669 5667 5664 5662 5660 5658 5655 5653 5652 5650 5648
5745 5744 5742 5741 5739 5736 5734 5731 5728 5726 5723 5720 5716 5713 5709 5706 5702 5697 5693 5690 5686 5682 5678 5676 5673 5670 5667 5664 5661 5658 5656 5654 5652 5650 5648 5646 5645 5643 5641 5639 5637 5636 5635
5735 5733 5731 5728 5726 5723 5720 5717 5714 5711 5707 5704 5700 5695 5691 5687 5683 5679 5674 5671 5667 5662 5659 5656 5653 5650 5647 5644 5642 5639 5637 5636 5634 5633 5631 5630 5629 5628 5626 5625 5623 5622 5621
5723 5720 5718 5715 5712 5709 5705 5702 5698 5694 5690 5686 5682 5677 5673 5669 5664 5659 5655 5650 5647 5642 5638 5635 5632 5629 5627 5624 5622 5620 5618 5617 5616 5615 5614 5614 5613 5613 5612 5611 5610 5609 5608
5710 5708 5704 5701 5698 5694 5690 5686 5682 5677 5673 5668 5664 5659 5654 5650 5645 5640 5635 5631 5627 5623 5618 5615 5611 5609 5606 5604 5601 5600 5598 5598 5598 5597 5597 5598 5598 5598 5597 5597 5597 5596 5596
5697 5694 5690 5686 5682 5678 5674 5669 5665 5660 5655 5650 5645 5640 5635 5631 5626 5622 5616 5611 5607 5603 5599 5595 5592 5589 5586 5584 5582 5580 5580 5579 5579 5580 5581 5582 5583 5583 5584 5584 5584 5584 5584
5682 5679 5675 5671 5666 5662 5657 5652 5647 5642 5637 5632 5627 5622 5617 5612 5607 5603 5598 5593 5588 5584 5581 5577 5574 5572 5569 5567 5565 5563 5563 5563 5563 5565 5566 5567 5569 5570 5571 5572 5572 5573 5573
5667 5663 5659 5654 5650 5645 5640 5635 5630 5625 5619 5614 5609 5604 5599 5594 5590 5585 5580 5576 5572 5568 5565 5561 5559 5556 5554 5552 5550 5549 5549 5549 5550 5552 5553 5555 5557 5558 5560 5560 5561 5561 5562
5652 5648 5643 5638 5633 5628 5623 5618 5613 5607 5602 5597 5592 5587 5582 5578 5573 5569 5565 5561 5557 5554 5550 5547 5545 5543 5541 5539 5538 5538 5538 5539 5540 5541 5543 5545 5547 5548 5549 5550 5551 5551 5552
5636 5632 5627 5622 5617 5612 5606 5601 5596 5591 5586 5582 5577 5572 5568 5563 5559 5555 5551 5547 5544 5541 5538 5535 5533 5532 5530 5529 5529 5529 5529 5530 5531 5533 5535 5536 5538 5539 5540 5541 5541 5541 5542
5621 5616 5611 5606 5601 5596 5591 5586 5581 5576 5572 5568 5563 5559 5555 5551 5547 5543 5539 5536 5533 5530 5527 5525 5524 5522 5521 5521 5521 5521 5522 5523 5525 5526 5528 5529 5530 5531 5532 5532 5533 5533 5533
5606 5602 5597 5592 5587 5582 5577 5572 5568 5563 5559 5555 5551 5547 5544 5540 5536 5533 5529 5526 5524 5521 5519 5518 5516 5515 5515 5515 5515 5516 5517 5518 5519 5520 5521 5522 5523 5524 5524 5525 5525 5525 5524